This demonstration page uses our WeatherBlox Daily Observations layout. Learn more.

Left ArrowRight Arrow

34.74481, -87.66753

Hourly Observations for July 18, 2020

Temp ( °F °C ) Dew Point ( °F °C ) Humidity (%) Winds ( mph kmh ) Pressure ( in mb ) Visibility ( mi km ) Precip ( " mm )
12:53 am 00:53 Clear 79 26.1 75 23.9 88 88 Calm 30.08 1019 10 16 0.00 0.00
1:53 am 01:53 Clear 78 25.6 74 23.3 87 87 Calm 30.07 1018 10 16 0.00 0.00
2:53 am 02:53 Clear 77 25 74 23.3 90 90 NNE 3 6 30.07 1018 10 16 0.00 0.00
3:53 am 03:53 Clear 78 25.6 74 23.3 87 87 ENE 3 6 30.07 1018 10 16 0.00 0.00
4:53 am 04:53 Clear 77 25 74 23.3 90 90 Calm 30.08 1019 10 16 0.00 0.00
5:53 am 05:53 Partly Cloudy 76 24.4 73 22.8 91 91 Calm 30.10 1019 10 16 0.00 0.00
6:53 am 06:53 Sunny 79 26.1 75 23.9 88 88 Calm 30.11 1020 10 16 0.00 0.00
7:53 am 07:53 Sunny 82 27.8 76 24.4 82 82 Calm 30.12 1020 10 16 0.00 0.00
8:53 am 08:53 Sunny 86 30 76 24.4 72 72 Calm 30.13 1020 10 16 0.00 0.00
9:53 am 09:53 Sunny 89 31.7 76 24.4 65 65 Calm 30.13 1020 10 16 0.00 0.00
10:53 am 10:53 Mostly Sunny 91 32.8 75 23.9 59 59 SSW 6 9 30.13 1020 10 16 0.00 0.00
11:53 am 11:53 Mostly Cloudy 93 33.9 73 22.8 52 52 SSW 6 9 30.11 1020 10 16 0.00 0.00
12:53 pm 12:53 Partly Cloudy 94 34.4 73 22.8 51 51 VRB 5 7 30.10 1019 10 16 0.00 0.00
1:53 pm 13:53 Cloudy 92 33.3 72 22.2 52 52 SW 7 11 30.08 1019 10 16 0.00 0.00
2:15 pm 14:15 Partly Cloudy with Nearby Thunderstorms 96 35.6 74 23.3 49 49 W 9 15 30.06 1018 10 16 0.00 0.00
2:30 pm 14:30 Mostly Cloudy 94 34.4 71 21.7 48 48 WNW 5 7 30.06 1018 10 16 0.00 0.00
2:53 pm 14:53 Mostly Cloudy 91 32.8 75 23.9 59 59 N 7 11 30.07 1018 10 16 0.00 0.00
3:53 pm 15:53 Sunny 95 35 73 22.8 49 49 NNW 5 7 30.04 1017 10 16 0.00 0.00
4:53 pm 16:53 Sunny 95 35 74 23.3 51 51 VRB 3 6 30.03 1017 10 16 0.00 0.00
5:53 pm 17:53 Partly Cloudy 94 34.4 74 23.3 52 52 Calm 30.02 1017 10 16 0.00 0.00
6:53 pm 18:53 Mostly Sunny 89 31.7 79 26.1 72 72 Calm 30.02 1017 10 16 0.00 0.00
7:53 pm 19:53 Sunny 86 30 78 25.6 77 77 ENE 3 6 30.03 1017 10 16 0.00 0.00
8:53 pm 20:53 Clear 83 28.3 78 25.6 85 85 Calm 30.04 1017 10 16 0.00 0.00
9:53 pm 21:53 Clear 82 27.8 77 25 85 85 Calm 30.05 1018 10 16 0.00 0.00
10:53 pm 22:53 Clear 82 27.8 76 24.4 82 82 Calm 30.05 1018 10 16 0.00 0.00
11:53 pm 23:53 Clear 82 27.8 77 25 85 85 S 3 6 30.05 1018 10 16 0.00 0.00

Powered by AerisWeather